Flag for China Weather past 2 weeks in Taiyuan, Shanxi, China

30 °F


Feels Like: 30 °F
Forecast: 22 / 46 °F
Wind: 1 mph from East

Location: Taiyuan Airport

Current Time: Nov 29, 2015 at 12:46:18 AM

Latest Report: Nov 29, 2015 at 12:00 AM

Visibility: 2 mi

Pressure: 30.18 "Hg (27.33 "Hg at 790m altitude)

Humidity: 80%

Dew point: 25 °F

Location of TaiyuanLocation

Historic Weather in Taiyuan — Graph


Taiyuan temperature yesterday

Maximum temperature yesterday: 46 °F (at 2:00 PM)
Minimum temperature yesterday: 23 °F (at 4:30 AM)
Average temperature yesterday: 33 °F

Past Weeks' High & Low Weather Summary

High54 °F (Nov 15, 12:30 PM)93% (Nov 14, 8:00 AM)30.48 "Hg (Nov 14, 8:00 AM)
Low10 °F (Nov 26, 4:00 AM)36% (Nov 25, 5:30 PM)29.92 "Hg (Nov 14, 2:30 PM)
Average36 °F74%30.20 "Hg
* Reported Nov 13 11:00 PM — Nov 28 11:30 PM, Taiyuan, Weather by CustomWeather, © 2015

Note: Actual official high and low records may vary slightly from our data, if they occured in-between our weather recording intervals... More about our weather records


Taiyuan weather history for previous 24 hours

Time TempWeatherWind HumidityBarometerVisibility
11:30 PM
Sat, Nov 28
32 °FHaze.3 mph80%30.18 "Hg1 mi
11:00 PM30 °FHaze.3 mph80%30.18 "Hg2 mi
10:30 PM32 °FHaze.3 mph80%30.18 "Hg1 mi
10:00 PM34 °FHaze.3 mph75%30.18 "Hg2 mi
9:30 PM32 °FHaze.6 mph80%30.18 "Hg2 mi
9:00 PM34 °FHaze.3 mph75%30.18 "Hg2 mi
8:30 PM34 °FHaze.6 mph75%30.18 "Hg2 mi
8:00 PM32 °FHaze.3 mph75%30.18 "Hg2 mi
7:30 PM36 °FHaze.6 mph70%30.18 "Hg1 mi
7:00 PM39 °FHaze.6 mph61%30.18 "Hg2 mi
6:30 PM37 °FHaze.3 mph60%30.15 "Hg2 mi
6:00 PM37 °FHaze.1 mph65%30.15 "Hg2 mi
5:30 PM39 °FHaze.1 mph56%30.15 "Hg2 mi
5:00 PM43 °FHaze.No wind53%30.15 "Hg3 mi
4:30 PM45 °FClear.1 mph46%30.15 "Hg4 mi
4:00 PM46 °FClear.1 mph43%30.15 "Hg4 mi
2:30 PM46 °FClear.3 mph43%30.18 "Hg4 mi
2:00 PM46 °FHaze.3 mph46%30.18 "Hg2 mi
1:30 PM45 °FHaze.3 mph46%30.18 "Hg2 mi
12:30 PM43 °FHaze.3 mph53%30.21 "Hg1 mi
12:00 PM43 °FFog.1 mph57%30.21 "Hg1 mi
11:30 AM39 °FFog.3 mph61%30.24 "Hg1 mi
10:30 AM36 °FFog.1 mph70%30.27 "Hg1 mi
10:00 AM34 °FFog.1 mph75%30.27 "Hg1 mi
9:30 AM32 °FIce fog.1 mph80%30.24 "Hg1 mi
9:00 AM30 °FIce fog.1 mph86%30.24 "Hg1 mi
8:30 AM27 °FIce fog.1 mph86%30.24 "Hg1 mi
8:00 AM25 °FIce fog.1 mph86%30.24 "Hg1 mi
7:30 AM23 °FIce fog.1 mph93%30.21 "Hg1 mi
7:00 AM23 °FIce fog.1 mph93%30.21 "Hg1 mi
6:30 AM23 °FIce fog.1 mph93%30.21 "Hg1 mi
6:00 AM25 °FIce fog.3 mph93%30.21 "Hg1 mi
5:30 AM25 °FIce fog.1 mph93%30.21 "Hg1 mi
5:00 AM23 °FIce fog.3 mph93%30.21 "Hg1 mi
4:30 AM23 °FIce fog.1 mph93%30.21 "Hg1 mi
4:00 AM25 °FIce fog.1 mph86%30.21 "Hg1 mi
3:30 AM25 °FIce fog.3 mph86%30.21 "Hg1 mi
3:00 AM27 °FIce fog.1 mph86%30.21 "Hg1 mi
2:30 AM27 °FIce fog.3 mph86%30.21 "Hg1 mi
2:00 AM27 °FIce fog.1 mph86%30.21 "Hg1 mi
1:30 AM27 °FIce fog.1 mph86%30.21 "Hg1 mi
1:00 AM27 °FIce fog.1 mph80%30.21 "Hg1 mi
12:30 AM30 °FIce fog.3 mph80%30.21 "Hg1 mi
12:00 AM28 °FIce fog.3 mph80%30.21 "Hg1 mi
Weather by CustomWeather, © 2015

See weather overviewHow to use our weather pages